Back to catalog

STARLINK-35217

AliveCommunicationsVLEO
NORAD 65627·PAYLOAD·🇺🇸 United States

Launched Sep 18, 2025 from Cape Canaveral Space Force Station

Loading…

Next Passes (next 24 hours)

TLE

FreshSource: CelesTrak SupGP

Epoch: Sep 14, 2026, 21:08 UTC

1 65627C 25210F   26257.88104167 -.00066550  00000+0 -19662-2 0  2579
2 65627  53.1582 147.7279 0001141  84.8562 335.7079 15.34425094    11

Track STARLINK-35217 in real time with AllMySat

Download on the App Store